| time (UTC) | temp C | wind direction | speed KPH | gust KPH | rain 1hr cm | rain 24hr cm | rain mn cm | humidity % | barometer mb |
| 20260504201459 | 24 | 301 | 4.8 | 12.9 | 0.00 | 0.00 | 0.00 | 29 | 1008.9 |
| 20260504200956 | 23 | 284 | 3.2 | 6.4 | 0.00 | 0.00 | 0.00 | 31 | 1009.1 |
| 20260504200453 | 24 | 298 | 9.7 | 12.9 | 0.00 | 0.00 | 0.00 | 30 | 1009.0 |
| 20260504195949 | 24 | 291 | 4.8 | 4.8 | 0.00 | 0.00 | 0.00 | 30 | 1009.3 |
| 20260504195445 | 24 | 151 | 3.2 | 12.9 | 0.00 | 0.00 | 0.00 | 30 | 1009.4 |
| 20260504194942 | 24 | 274 | 3.2 | 9.7 | 0.00 | 0.00 | 0.00 | 31 | 1009.5 |
| 20260504194438 | 23 | 214 | 3.2 | 4.8 | 0.00 | 0.00 | 0.00 | 30 | 1009.5 |
| 20260504193934 | 23 | 278 | 14.5 | 17.7 | 0.00 | 0.00 | 0.00 | 31 | 1009.6 |
| 20260504193432 | 23 | 238 | 3.2 | 11.3 | 0.00 | 0.00 | 0.00 | 31 | 1009.7 |
| 20260504192930 | 23 | 291 | 8.0 | 11.3 | 0.00 | 0.00 | 0.00 | 30 | 1009.8 |
| 20260504192427 | 23 | 289 | 6.4 | 12.9 | 0.00 | 0.00 | 0.00 | 31 | 1009.8 |
| 20260504191926 | 23 | 172 | 1.6 | 3.2 | 0.00 | 0.00 | 0.00 | 30 | 1010.0 |
| 20260504191424 | 23 | 285 | 3.2 | 6.4 | 0.00 | 0.00 | 0.00 | 31 | 1010.2 |
| 20260504190919 | 23 | 133 | 3.2 | 12.9 | 0.00 | 0.00 | 0.00 | 32 | 1010.1 |
| 20260504190415 | 23 | 156 | 4.8 | 11.3 | 0.00 | 0.00 | 0.00 | 29 | 1010.3 |
| 20260504185912 | 23 | 204 | 3.2 | 4.8 | 0.00 | 0.00 | 0.00 | 29 | 1010.3 |
| 20260504185409 | 23 | 207 | 6.4 | 12.9 | 0.00 | 0.00 | 0.00 | 31 | 1010.4 |
| 20260504184904 | 22 | 274 | 4.8 | 9.7 | 0.00 | 0.00 | 0.00 | 32 | 1010.4 |
| 20260504184401 | 23 | 280 | 6.4 | 11.3 | 0.00 | 0.00 | 0.00 | 30 | 1010.3 |
| 20260504183857 | 23 | 235 | 9.7 | 17.7 | 0.00 | 0.00 | 0.00 | 31 | 1010.4 |
| 20260504183354 | 23 | 289 | 6.4 | 11.3 | 0.00 | 0.00 | 0.00 | 30 | 1010.6 |
| 20260504182851 | 23 | 253 | 6.4 | 9.7 | 0.00 | 0.00 | 0.00 | 31 | 1010.7 |
| 20260504182349 | 23 | 266 | 4.8 | 9.7 | 0.00 | 0.00 | 0.00 | 30 | 1010.8 |
| 20260504181845 | 23 | 275 | 3.2 | 6.4 | 0.00 | 0.00 | 0.00 | 32 | 1010.7 |
| 20260504181343 | 23 | 250 | 3.2 | 9.7 | 0.00 | 0.00 | 0.00 | 31 | 1010.7 |
| 20260504180842 | 23 | 296 | 1.6 | 6.4 | 0.00 | 0.00 | 0.00 | 31 | 1010.8 |
| 20260504180340 | 22 | 176 | 6.4 | 6.4 | 0.00 | 0.00 | 0.00 | 32 | 1011.0 |
| 20260504175838 | 23 | 289 | 3.2 | 4.8 | 0.00 | 0.00 | 0.00 | 33 | 1010.8 |
| 20260504175334 | 23 | 279 | 4.8 | 9.7 | 0.00 | 0.00 | 0.00 | 33 | 1011.0 |
| 20260504174832 | 22 | 181 | 8.0 | 9.7 | 0.00 | 0.00 | 0.00 | 30 | 1011.0 |
| 20260504174330 | 22 | 287 | 3.2 | 4.8 | 0.00 | 0.00 | 0.00 | 31 | 1011.2 |
| 20260504173826 | 22 | 278 | 3.2 | 11.3 | 0.00 | 0.00 | 0.00 | 35 | 1011.2 |
| 20260504173323 | 22 | 289 | 4.8 | 11.3 | 0.00 | 0.00 | 0.00 | 31 | 1011.3 |
| 20260504172820 | 22 | 267 | 4.8 | 6.4 | 0.00 | 0.00 | 0.00 | 33 | 1011.4 |
| 20260504172317 | 22 | 146 | 6.4 | 9.7 | 0.00 | 0.00 | 0.00 | 34 | 1011.3 |
| 20260504171812 | 22 | 290 | 6.4 | 9.7 | 0.00 | 0.00 | 0.00 | 31 | 1011.5 |
| 20260504171310 | 22 | 250 | 1.6 | 6.4 | 0.00 | 0.00 | 0.00 | 31 | 1011.7 |
| 20260504170807 | 21 | 265 | 8.0 | 11.3 | 0.00 | 0.00 | 0.00 | 31 | 1011.7 |
| 20260504170304 | 21 | 290 | 6.4 | 12.9 | 0.00 | 0.00 | 0.00 | 31 | 1011.8 |
| 20260504160222 | 20 | 291 | 9.7 | 11.3 | 0.00 | 0.00 | 0.00 | 35 | 1012.4 |
| 20260504150652 | 19 | 290 | 6.4 | 12.9 | 0.00 | 0.00 | 0.00 | 33 | 1012.9 |
| 20260504150149 | 19 | 294 | 4.8 | 14.5 | 0.00 | 0.00 | 0.00 | 34 | 1013.0 |
| 20260504141118 | 17 | 278 | 1.6 | 1.6 | 0.00 | 0.00 | 0.00 | 44 | 1013.6 |
| 20260504140615 | 16 | 91 | 0.0 | 0.0 | 0.00 | 0.00 | 0.00 | 44 | 1013.4 |
| 20260504140110 | 16 | 139 | 8.0 | 9.7 | 0.00 | 0.00 | 0.00 | 43 | 1013.6 |
| 20260504130539 | 15 | 43 | 0.0 | 1.6 | 0.00 | 0.00 | 0.00 | 44 | 1013.8 |
| 20260504110426 | 3 | 293 | 0.0 | 0.0 | 0.00 | 0.00 | 0.00 | 87 | 1014.1 |
| 20260504100343 | 2 | 293 | 0.0 | 0.0 | 0.00 | 0.00 | 0.00 | 88 | 1014.4 |
| 20260504081737 | 3 | 293 | 0.0 | 0.0 | 0.00 | 0.00 | 0.00 | 84 | 1014.6 |
| 20260504081233 | 3 | 293 | 0.0 | 0.0 | 0.00 | 0.00 | 0.00 | 85 | 1014.6 |
| 20260504080730 | 3 | 293 | 0.0 | 0.0 | 0.00 | 0.00 | 0.00 | 86 | 1014.6 |
| 20260504080226 | 3 | 293 | 0.0 | 0.0 | 0.00 | 0.00 | 0.00 | 86 | 1014.6 |
| 20260504070154 | 4 | 293 | 0.0 | 0.0 | 0.00 | 0.00 | 0.00 | 81 | 1014.4 |
| 20260504060114 | 5 | 293 | 0.0 | 0.0 | 0.00 | 0.00 | 0.00 | 77 | 1014.5 |
| 20260504050542 | 6 | 293 | 0.0 | 0.0 | 0.00 | 0.00 | 0.00 | 75 | 1014.6 |
| 20260504045536 | 6 | 293 | 0.0 | 0.0 | 0.00 | 0.00 | 0.00 | 76 | 1014.7 |
| 20260504045031 | 6 | 293 | 0.0 | 0.0 | 0.00 | 0.00 | 0.00 | 75 | 1014.7 |
| 20260504044529 | 6 | 293 | 0.0 | 0.0 | 0.00 | 0.00 | 0.00 | 76 | 1014.6 |
| 20260504044026 | 6 | 293 | 0.0 | 0.0 | 0.00 | 0.00 | 0.00 | 75 | 1014.7 |
| 20260504043523 | 6 | 293 | 0.0 | 0.0 | 0.00 | 0.00 | 0.00 | 73 | 1014.5 |
| 20260504043021 | 6 | 293 | 0.0 | 0.0 | 0.00 | 0.00 | 0.00 | 73 | 1014.5 |
| 20260504042517 | 6 | 293 | 0.0 | 0.0 | 0.00 | 0.00 | 0.00 | 71 | 1014.6 |
| 20260504042014 | 6 | 293 | 0.0 | 0.0 | 0.00 | 0.00 | 0.00 | 70 | 1014.5 |
| 20260504041510 | 7 | 293 | 0.0 | 0.0 | 0.00 | 0.00 | 0.00 | 69 | 1014.6 |
| 20260504041006 | 7 | 293 | 0.0 | 0.0 | 0.00 | 0.00 | 0.00 | 71 | 1014.5 |
| 20260504040504 | 7 | 293 | 1.6 | 1.6 | 0.00 | 0.00 | 0.00 | 73 | 1014.4 |
| 20260504035959 | 7 | 293 | 1.6 | 1.6 | 0.00 | 0.00 | 0.00 | 71 | 1014.3 |
| 20260504035457 | 7 | 293 | 0.0 | 0.0 | 0.00 | 0.00 | 0.00 | 70 | 1014.4 |
| 20260504034953 | 7 | 293 | 1.6 | 1.6 | 0.00 | 0.00 | 0.00 | 70 | 1014.2 |
| 20260504034451 | 7 | 294 | 0.0 | 0.0 | 0.00 | 0.00 | 0.00 | 66 | 1014.3 |
| 20260504033948 | 7 | 294 | 0.0 | 0.0 | 0.00 | 0.00 | 0.00 | 66 | 1014.5 |
| 20260504033446 | 7 | 294 | 0.0 | 0.0 | 0.00 | 0.00 | 0.00 | 68 | 1014.4 |
| 20260504032943 | 7 | 294 | 0.0 | 0.0 | 0.00 | 0.00 | 0.00 | 66 | 1014.3 |
| 20260504032440 | 7 | 294 | 0.0 | 0.0 | 0.00 | 0.00 | 0.00 | 67 | 1014.1 |
| 20260504031936 | 7 | 294 | 0.0 | 0.0 | 0.00 | 0.00 | 0.00 | 65 | 1014.2 |
| 20260504031433 | 7 | 294 | 0.0 | 0.0 | 0.00 | 0.00 | 0.00 | 68 | 1014.0 |
| 20260504030930 | 7 | 294 | 0.0 | 0.0 | 0.00 | 0.00 | 0.00 | 63 | 1014.2 |
| 20260504030427 | 7 | 294 | 0.0 | 0.0 | 0.00 | 0.00 | 0.00 | 66 | 1014.1 |
| 20260504025923 | 7 | 294 | 0.0 | 0.0 | 0.00 | 0.00 | 0.00 | 66 | 1014.1 |
| 20260504025420 | 8 | 294 | 0.0 | 0.0 | 0.00 | 0.00 | 0.00 | 60 | 1014.2 |
| 20260504024917 | 8 | 294 | 0.0 | 0.0 | 0.00 | 0.00 | 0.00 | 60 | 1014.1 |
| 20260504024414 | 8 | 294 | 0.0 | 0.0 | 0.00 | 0.00 | 0.00 | 60 | 1014.0 |
| 20260504023911 | 8 | 294 | 0.0 | 0.0 | 0.00 | 0.00 | 0.00 | 59 | 1013.9 |
| 20260504023407 | 8 | 294 | 0.0 | 0.0 | 0.00 | 0.00 | 0.00 | 58 | 1014.1 |
| 20260504022903 | 9 | 294 | 0.0 | 0.0 | 0.00 | 0.00 | 0.00 | 55 | 1014.1 |
| 20260504022400 | 9 | 294 | 0.0 | 0.0 | 0.00 | 0.00 | 0.00 | 54 | 1014.1 |
| 20260504021856 | 10 | 294 | 0.0 | 0.0 | 0.00 | 0.00 | 0.00 | 53 | 1014.2 |
| 20260504021354 | 10 | 294 | 0.0 | 0.0 | 0.00 | 0.00 | 0.00 | 54 | 1014.0 |
| 20260504020851 | 10 | 294 | 0.0 | 0.0 | 0.00 | 0.00 | 0.00 | 51 | 1014.0 |
| 20260504020347 | 11 | 294 | 0.0 | 0.0 | 0.00 | 0.00 | 0.00 | 47 | 1014.1 |
| 20260504015843 | 11 | 294 | 0.0 | 0.0 | 0.00 | 0.00 | 0.00 | 44 | 1014.1 |
| 20260504015340 | 11 | 294 | 0.0 | 0.0 | 0.00 | 0.00 | 0.00 | 43 | 1014.0 |
| 20260504014836 | 11 | 294 | 0.0 | 0.0 | 0.00 | 0.00 | 0.00 | 45 | 1013.9 |
| 20260504014332 | 11 | 294 | 0.0 | 0.0 | 0.00 | 0.00 | 0.00 | 45 | 1014.1 |
| 20260504013830 | 11 | 294 | 0.0 | 1.6 | 0.00 | 0.00 | 0.00 | 42 | 1014.1 |
| 20260504013328 | 11 | 294 | 0.0 | 1.6 | 0.00 | 0.00 | 0.00 | 41 | 1013.9 |
| 20260504012824 | 11 | 294 | 0.0 | 1.6 | 0.00 | 0.00 | 0.00 | 41 | 1014.0 |
| 20260504012322 | 12 | 294 | 0.0 | 0.0 | 0.00 | 0.00 | 0.00 | 41 | 1014.0 |
| 20260504011819 | 12 | 294 | 0.0 | 1.6 | 0.00 | 0.00 | 0.00 | 40 | 1013.8 |
| 20260504011316 | 12 | 294 | 0.0 | 0.0 | 0.00 | 0.00 | 0.00 | 40 | 1013.6 |
| 20260504010811 | 12 | 294 | 0.0 | 1.6 | 0.00 | 0.00 | 0.00 | 40 | 1013.8 |
| 20260504010307 | 12 | 294 | 0.0 | 0.0 | 0.00 | 0.00 | 0.00 | 40 | 1013.8 |
| 20260504005804 | 12 | 294 | 1.6 | 1.6 | 0.00 | 0.00 | 0.00 | 39 | 1013.7 |
| 20260504005301 | 12 | 294 | 0.0 | 1.6 | 0.00 | 0.00 | 0.00 | 39 | 1013.6 |
| 20260504004759 | 12 | 294 | 0.0 | 1.6 | 0.00 | 0.00 | 0.00 | 37 | 1013.6 |
| 20260504004256 | 13 | 294 | 0.0 | 1.6 | 0.00 | 0.00 | 0.00 | 37 | 1013.8 |
| 20260504003752 | 13 | 294 | 1.6 | 1.6 | 0.00 | 0.00 | 0.00 | 37 | 1013.6 |
| 20260504003249 | 13 | 294 | 1.6 | 1.6 | 0.00 | 0.00 | 0.00 | 36 | 1013.5 |
| 20260504002745 | 13 | 292 | 3.2 | 4.8 | 0.00 | 0.00 | 0.00 | 36 | 1013.4 |
| 20260504002242 | 13 | 296 | 3.2 | 3.2 | 0.00 | 0.00 | 0.00 | 35 | 1013.4 |
| 20260504001740 | 13 | 294 | 3.2 | 3.2 | 0.00 | 0.00 | 0.00 | 35 | 1013.3 |
| 20260504001237 | 13 | 287 | 3.2 | 3.2 | 0.00 | 0.00 | 0.00 | 34 | 1013.6 |
| 20260504000734 | 14 | 288 | 3.2 | 4.8 | 0.00 | 0.00 | 0.00 | 33 | 1013.2 |
| 20260504000231 | 14 | 289 | 3.2 | 4.8 | 0.00 | 0.00 | 0.00 | 33 | 1013.2 |
| 20260503235729 | 15 | 302 | 3.2 | 9.7 | 0.00 | 0.00 | 0.00 | 32 | 1012.9 |
| 20260503235226 | 15 | 291 | 3.2 | 11.3 | 0.00 | 0.00 | 0.00 | 32 | 1012.9 |
| 20260503234724 | 15 | 284 | 6.4 | 6.4 | 0.00 | 0.00 | 0.00 | 32 | 1012.9 |
| 20260503234222 | 15 | 259 | 6.4 | 11.3 | 0.00 | 0.00 | 0.00 | 31 | 1013.0 |
| 20260503233718 | 15 | 261 | 4.8 | 9.7 | 0.00 | 0.00 | 0.00 | 31 | 1012.8 |
| 20260503233214 | 15 | 280 | 6.4 | 9.7 | 0.00 | 0.00 | 0.00 | 31 | 1013.0 |
| 20260503232711 | 15 | 277 | 3.2 | 11.3 | 0.00 | 0.00 | 0.00 | 30 | 1012.9 |
| 20260503232208 | 15 | 278 | 3.2 | 6.4 | 0.00 | 0.00 | 0.00 | 30 | 1013.0 |
| 20260503231707 | 16 | 283 | 6.4 | 14.5 | 0.00 | 0.00 | 0.00 | 29 | 1013.0 |
| 20260503231203 | 16 | 262 | 9.7 | 12.9 | 0.00 | 0.00 | 0.00 | 29 | 1013.0 |
| 20260503230659 | 16 | 268 | 9.7 | 11.3 | 0.00 | 0.00 | 0.00 | 29 | 1012.9 |
| 20260503230156 | 16 | 282 | 8.0 | 14.5 | 0.00 | 0.00 | 0.00 | 28 | 1012.9 |
| 20260503225653 | 16 | 292 | 3.2 | 14.5 | 0.00 | 0.00 | 0.00 | 29 | 1012.8 |
| 20260503225153 | 16 | 292 | 12.9 | 17.7 | 0.00 | 0.00 | 0.00 | 28 | 1012.6 |
| 20260503224651 | 16 | 280 | 9.7 | 12.9 | 0.00 | 0.00 | 0.00 | 28 | 1012.8 |
| 20260503224149 | 16 | 289 | 6.4 | 11.3 | 0.00 | 0.00 | 0.00 | 29 | 1012.8 |
| 20260503223647 | 16 | 277 | 9.7 | 14.5 | 0.00 | 0.00 | 0.00 | 28 | 1012.8 |
| 20260503223143 | 16 | 280 | 6.4 | 16.1 | 0.00 | 0.00 | 0.00 | 29 | 1013.0 |
| 20260503222640 | 16 | 274 | 11.3 | 20.9 | 0.00 | 0.00 | 0.00 | 28 | 1012.9 |
| 20260503222138 | 16 | 304 | 9.7 | 11.3 | 0.00 | 0.00 | 0.00 | 28 | 1012.8 |
| 20260503221636 | 16 | 281 | 14.5 | 16.1 | 0.00 | 0.00 | 0.00 | 27 | 1012.7 |
| 20260503221133 | 16 | 225 | 4.8 | 9.7 | 0.00 | 0.00 | 0.00 | 28 | 1012.7 |
| 20260503220630 | 16 | 304 | 8.0 | 9.7 | 0.00 | 0.00 | 0.00 | 29 | 1012.8 |
| 20260503220126 | 16 | 297 | 12.9 | 17.7 | 0.00 | 0.00 | 0.00 | 28 | 1012.9 |
| 20260503215624 | 16 | 280 | 16.1 | 20.9 | 0.00 | 0.00 | 0.00 | 28 | 1012.7 |
| 20260503215120 | 16 | 277 | 12.9 | 22.5 | 0.00 | 0.00 | 0.00 | 29 | 1012.9 |
| 20260503214619 | 16 | 275 | 20.9 | 24.1 | 0.00 | 0.00 | 0.00 | 28 | 1012.9 |
| 20260503214114 | 16 | 324 | 16.1 | 17.7 | 0.00 | 0.00 | 0.00 | 28 | 1012.9 |
| 20260503213614 | 16 | 303 | 14.5 | 16.1 | 0.00 | 0.00 | 0.00 | 28 | 1012.7 |
| 20260503213110 | 16 | 290 | 12.9 | 20.9 | 0.00 | 0.00 | 0.00 | 27 | 1012.8 |
| 20260503212608 | 16 | 267 | 14.5 | 17.7 | 0.00 | 0.00 | 0.00 | 28 | 1012.8 |
| 20260503212105 | 16 | 269 | 6.4 | 17.7 | 0.00 | 0.00 | 0.00 | 29 | 1012.5 |
| 20260503211602 | 16 | 260 | 11.3 | 17.7 | 0.00 | 0.00 | 0.00 | 28 | 1012.7 |
| 20260503211057 | 16 | 281 | 14.5 | 22.5 | 0.00 | 0.00 | 0.00 | 27 | 1013.0 |
| 20260503210554 | 16 | 303 | 14.5 | 20.9 | 0.00 | 0.00 | 0.00 | 28 | 1012.9 |
| 20260503210050 | 16 | 283 | 3.2 | 16.1 | 0.00 | 0.00 | 0.00 | 29 | 1012.7 |
| 20260503205547 | 16 | 286 | 11.3 | 14.5 | 0.00 | 0.00 | 0.00 | 28 | 1012.8 |
| 20260503205043 | 16 | 271 | 9.7 | 17.7 | 0.00 | 0.00 | 0.00 | 28 | 1012.7 |
| 20260503204540 | 16 | 294 | 16.1 | 24.1 | 0.00 | 0.00 | 0.00 | 27 | 1012.8 |
| 20260503204037 | 16 | 277 | 9.7 | 11.3 | 0.00 | 0.00 | 0.00 | 29 | 1012.6 |
| 20260503203534 | 16 | 288 | 8.0 | 16.1 | 0.00 | 0.00 | 0.00 | 29 | 1012.8 |
| 20260503203031 | 16 | 276 | 14.5 | 20.9 | 0.00 | 0.00 | 0.00 | 27 | 1012.7 |
| 20260503202529 | 16 | 286 | 17.7 | 24.1 | 0.00 | 0.00 | 0.00 | 29 | 1012.6 |
| 20260503202027 | 16 | 289 | 11.3 | 22.5 | 0.00 | 0.00 | 0.00 | 29 | 1012.7 |